Location: Follega
(52.8850°N, 5.7362°E)
Time: 08:01:56
(UTC+00:00)

ERS-1 Rocket - Pass Details

Date: 08 October 2020
Orbit: 753 x 757 km, 98.5° (Epoch: 30 October)

Event Time Altitude Azimuth Distance (km) Brightness Sun altitude
Exits shadow 22:38:14 11° 314° (NW) 2,254 5.9 -42.5°
Drops below altitude 10° 22:38:22 10° 315° (NW) 2,289 6.0 -42.5°
Sets 22:41:26 0° 334° (NNW) 3,230 7.0 -42.6°
